Station UTVT2 - 8775236 - UTMSI Visibility, TX Image indicating link to RSS feed of recent meteorological observations for station UTVT2


Conditions at UTVT2 as of
(4:48 pm CST)
2248 GMT on 12/04/2023:
     

Click on the graph icon in the table below to see a time series plot of the last five days of that observation.

5-day plot - Atmospheric Pressure Atmospheric Pressure (PRES):30.07 in
5-day plot - Visibility Visibility (VIS): 5.9 nmi
NOS Water Level Observation Network Water Level
Previous observations
TIME
(CST)
5-day plot - Wind Direction
WDIR
 
5-day plot - Wind Speed
WSPD
kts
5-day plot - Wind Gust
GST
kts
5-day plot - Wave Height
WVHT
ft
5-day plot - Dominant Wave Period
DPD
sec
5-day plot - Average Wave Period
APD
sec
5-day plot - Mean Wave Direction
MWD
 
5-day plot - Atmospheric Pressure
PRES
in
5-day plot - Pressure Tendency
PTDY
in
5-day plot - Air Temperature
ATMP
°F
5-day plot - Water Temperature
WTMP
°F
5-day plot - Dew Point
DEWP
°F
5-day plot - Salinity
SAL
psu
5-day plot - Visibility
VIS
nmi
5-day plot - Tide (above MLLW)
TIDE
ft
2023-12-04 04:42 pm-------30.07----- 5.9-
2023-12-04 04:36 pm-------30.07----- 5.9-
2023-12-04 04:30 pm-------30.06----- 5.9-
2023-12-04 04:24 pm-------30.06----- 5.9-
2023-12-04 04:00 pm--------- 65.8- 56.8- 5.9-
2023-12-04 03:54 pm--------- 65.8- 56.7- 5.9-
2023-12-04 03:18 pm-------30.05- 66.2- 56.5- 5.9-
2023-12-04 03:12 pm-------30.05- 66.2- 56.1- 5.9-
2023-12-04 03:06 pm-------30.05- 66.4- 56.3- 5.9-
2023-12-04 03:00 pm-------30.05-0.06------
2023-12-04 02:54 pm-------30.05-------
2023-12-04 02:48 pm-------30.06----- 5.9-
2023-12-04 02:42 pm-------30.05----- 5.9-
2023-12-04 02:36 pm-------30.05----- 5.9-
2023-12-04 02:30 pm-------30.05- 66.2- 56.3- 5.9-
2023-12-04 02:24 pm-------30.05- 66.2- 55.6- 5.9-
2023-12-04 02:18 pm-------30.04- 66.4- 55.4- 5.9-
2023-12-04 02:12 pm-------30.04- 66.6- 55.0- 5.9-
2023-12-04 02:06 pm-------30.05- 66.6- 55.2- 5.9-
2023-12-04 02:00 pm-------30.05-0.08 66.2- 55.0- 5.9-
2023-12-04 01:54 pm-------30.05- 66.2- 54.9- 5.9-
2023-12-04 01:48 pm-------30.06- 66.7- 55.0- 5.9-
2023-12-04 01:42 pm-------30.06- 66.7- 54.7- 5.9-
2023-12-04 01:36 pm-------30.06- 66.6- 54.7- 5.9-
2023-12-04 01:30 pm-------30.06- 66.6- 54.5- 5.9-
2023-12-04 01:24 pm-------30.06- 66.7- 55.0- 5.9-
2023-12-04 01:18 pm-------30.06- 67.1- 55.9- 5.9-
2023-12-04 01:12 pm-------30.07- 66.7- 56.1- 5.9-
2023-12-04 01:06 pm-------30.07- 66.2- 55.6- 5.9-
2023-12-04 01:00 pm-------30.08-0.05 65.7- 56.1- 5.9-
2023-12-04 12:54 pm-------30.08- 65.7- 55.9- 5.9-
2023-12-04 12:48 pm-------30.08- 66.0- 56.3- 5.9-
2023-12-04 12:42 pm-------30.09- 66.7- 55.4- 5.9-
2023-12-04 12:36 pm-------30.09- 66.9- 55.0- 5.9-
2023-12-04 12:30 pm-------30.09- 66.4- 54.3- 5.9-
2023-12-04 12:24 pm-------30.10- 67.1- 54.7- 5.9-
2023-12-04 12:18 pm-------30.10- 66.9- 54.7- 5.9-
2023-12-04 12:12 pm-------30.10- 65.8- 53.8- 5.9-
2023-12-04 12:06 pm-------30.11- 65.1- 53.6- 5.9-
2023-12-04 12:00 pm-------30.11-0.01 65.1- 53.4- 5.9-
2023-12-04 11:54 am-------30.11- 65.3- 53.2- 5.9-
2023-12-04 11:48 am-------30.12- 65.3- 53.2- 5.9-
2023-12-04 11:42 am-------30.11- 64.9- 53.2- 5.9-
2023-12-04 11:36 am-------30.12- 64.9- 52.9- 5.9-
2023-12-04 11:30 am-------30.12- 64.9- 52.3- 5.9-
2023-12-04 11:24 am-------30.12- 65.3- 52.5- 5.9-
2023-12-04 11:18 am-------30.12- 65.3- 52.3- 5.9-
2023-12-04 11:12 am-------30.12- 64.8- 52.9- 5.9-
2023-12-04 11:06 am-------30.13- 65.1- 52.5- 5.9-
2023-12-04 11:00 am-------30.13+0.03 64.8- 51.8- 5.9-
2023-12-04 10:54 am-------30.13- 64.6- 51.6- 5.9-
2023-12-04 10:48 am-------30.13- 64.2- 51.3- 5.9-
2023-12-04 10:42 am-------30.13- 64.6- 51.4- 5.9-
2023-12-04 10:36 am-------30.13- 64.4- 52.5- 5.9-
2023-12-04 10:30 am-------30.13- 64.4- 52.0- 5.9-
2023-12-04 10:24 am-------30.13- 64.6- 51.1- 5.9-
2023-12-04 10:18 am-------30.13- 64.6- 50.5- 5.9-
2023-12-04 10:12 am-------30.13- 64.9- 49.5- 5.9-
2023-12-04 10:06 am-------30.13- 65.1- 50.7- 5.9-
2023-12-04 10:00 am-------30.13+0.08 64.9- 50.5- 5.9-
2023-12-04 09:54 am-------30.13- 65.1- 49.5- 5.9-
2023-12-04 09:48 am-------30.13- 65.3- 49.5- 5.9-
2023-12-04 09:42 am-------30.13- 65.3- 48.7- 5.9-
2023-12-04 09:36 am-------30.13- 65.7- 50.5- 5.9-
2023-12-04 09:30 am-------30.13- 65.8- 50.2- 5.9-
2023-12-04 09:24 am-------30.12- 66.0- 50.4- 5.9-
2023-12-04 09:18 am-------30.12- 65.7- 50.7- 5.9-
2023-12-04 09:12 am-------30.12- 64.6- 53.6- 5.9-
2023-12-04 09:06 am-------30.12- 64.4- 54.5- 5.9-
2023-12-04 09:00 am-------30.12+0.10 63.9- 54.1- 5.9-
2023-12-04 08:54 am-------30.12- 63.3- 53.8- 5.9-
2023-12-04 08:48 am-------30.11- 63.0- 54.1- 5.9-
2023-12-04 08:42 am-------30.11- 62.2- 54.7- 5.9-
2023-12-04 08:36 am-------30.11- 61.5- 54.7- 5.9-
2023-12-04 08:30 am-------30.11- 61.2- 54.1- 5.9-
2023-12-04 08:24 am-------30.11- 60.4- 54.7- 5.9-
2023-12-04 08:18 am-------30.11- 59.9- 56.3- 5.9-
2023-12-04 08:12 am-------30.10- 59.9- 57.4- 5.9-
2023-12-04 08:06 am-------30.10- 60.1- 58.1- 5.9-
2023-12-04 08:00 am-------30.10+0.09 60.8- 59.5- 5.9-
2023-12-04 07:54 am-------30.09- 61.5- 60.4- 5.9-
2023-12-04 07:48 am-------30.08- 61.9- 60.6- 5.9-
2023-12-04 07:42 am-------30.07- 61.9- 60.6- 5.9-
2023-12-04 07:36 am-------30.07- 61.9- 60.6- 5.9-
2023-12-04 07:30 am-------30.06- 62.1- 60.6- 5.9-
2023-12-04 07:24 am-------30.06- 62.2- 60.8- 5.9-
2023-12-04 07:18 am-------30.06- 61.9- 60.3- 5.9-
2023-12-04 07:12 am-------30.05- 62.1- 60.3- 5.9-
2023-12-04 07:06 am-------30.05- 61.5- 59.9- 5.9-
2023-12-04 07:00 am-------30.05+0.04 61.5- 60.1- 5.9-
2023-12-04 06:54 am-------30.05- 62.1- 60.6- 5.9-
2023-12-04 06:48 am-------30.05- 61.3- 59.9- 5.9-
2023-12-04 06:42 am-------30.04- 61.3- 60.1- 5.9-
2023-12-04 06:36 am-------30.04- 61.5- 60.3- 5.9-
2023-12-04 06:30 am-------30.03- 61.7- 60.6- 5.9-
2023-12-04 06:24 am-------30.03- 61.9- 60.8- 5.9-
2023-12-04 06:18 am-------30.03- 61.7- 60.4- 5.9-
2023-12-04 06:12 am-------30.03- 62.1- 60.8- 5.9-
2023-12-04 06:06 am-------30.03- 62.1- 60.6- 5.9-
2023-12-04 06:00 am-------30.02+0.04 62.1- 60.6- 5.9-
2023-12-04 05:54 am-------30.02- 62.1- 60.6- 5.9-
2023-12-04 05:48 am-------30.02- 61.5- 59.9- 5.9-
2023-12-04 05:42 am-------30.01- 61.9- 60.4- 5.9-
2023-12-04 05:36 am-------30.01- 62.2- 60.8- 5.9-
2023-12-04 05:30 am-------30.01- 62.1- 60.4- 5.9-
2023-12-04 05:24 am-------30.01- 62.2- 60.6- 5.9-
2023-12-04 05:18 am-------30.01- 62.4- 60.6- 5.9-
2023-12-04 05:12 am-------30.01- 62.6- 60.6- 5.9-
2023-12-04 05:06 am-------30.01- 62.8- 60.6- 5.9-
2023-12-04 05:00 am-------30.01+0.02 62.2- 59.7- 5.9-
2023-12-04 04:54 am-------30.01- 62.1- 59.4- 5.9-
2023-12-04 04:48 am-------30.01- 62.6- 59.7- 5.9-
2023-12-04 04:42 am-------30.01- 62.6- 59.5- 5.9-
2023-12-04 04:36 am-------30.01- 62.6- 59.5- 5.9-
2023-12-04 04:30 am-------30.01- 62.4- 59.0- 5.9-
2023-12-04 04:24 am-------30.01- 63.0- 59.2- 5.9-
2023-12-04 04:18 am-------30.01- 62.8- 59.0- 5.9-
2023-12-04 04:12 am-------30.01- 63.0- 58.5- 5.9-
2023-12-04 04:06 am-------30.01- 62.6- 57.6- 5.9-
2023-12-04 04:00 am-------30.01+0.02 62.8- 57.6- 5.9-
2023-12-04 03:54 am-------30.01- 62.4- 57.4- 5.9-
2023-12-04 03:48 am-------30.01- 63.0- 57.6- 5.9-
2023-12-04 03:42 am-------30.00- 63.3- 57.7- 5.9-
2023-12-04 03:36 am-------30.00- 63.1- 57.7- 5.9-
2023-12-04 03:30 am-------30.01- 62.8- 57.9- 5.9-
2023-12-04 03:24 am-------30.00- 62.8- 58.1- 5.9-
2023-12-04 03:18 am-------30.00- 63.1- 59.0- 5.9-
2023-12-04 03:12 am-------30.00- 62.8- 59.0- 5.9-
2023-12-04 03:06 am-------29.99- 63.1- 59.5- 5.9-
2023-12-04 03:00 am-------29.99-0.01 63.1- 59.5- 5.9-
2023-12-04 02:54 am-------29.99- 63.1- 59.4- 5.9-
2023-12-04 02:48 am-------29.99- 63.3- 59.0- 5.9-
2023-12-04 02:42 am-------29.99- 63.3- 58.6- 5.9-
2023-12-04 02:36 am-------29.99- 63.0- 57.9- 5.9-
2023-12-04 02:30 am-------29.99- 63.1- 57.2- 5.9-
2023-12-04 02:24 am-------29.99- 63.0- 56.8- 5.9-
2023-12-04 02:18 am-------29.99- 63.0- 56.7- 5.9-
2023-12-04 02:12 am-------29.99- 62.8- 56.1- 5.9-
2023-12-04 02:06 am-------29.99- 62.6- 55.8- 5.9-
2023-12-04 02:00 am-------29.99+0.00 63.1- 56.1- 5.9-
2023-12-04 01:54 am-------29.99- 63.7- 56.3- 5.9-
2023-12-04 01:48 am-------29.99- 63.7- 55.9- 5.9-
2023-12-04 01:42 am-------30.00- 63.5- 55.6- 5.9-
2023-12-04 01:36 am-------29.99- 63.7- 55.8- 5.9-
2023-12-04 01:30 am-------29.99- 63.5- 55.2- 5.9-
2023-12-04 01:24 am-------29.99- 63.5- 54.7- 5.9-
2023-12-04 01:18 am-------29.99- 63.7- 54.5- 5.9-
2023-12-04 01:12 am-------29.99- 63.9- 54.1- 5.9-
2023-12-04 01:06 am-------29.99- 63.9- 53.6- 5.9-
2023-12-04 01:00 am-------29.99+0.00---- 5.9-
2023-12-04 12:54 am-------29.99----- 5.9-
2023-12-04 12:48 am-------29.99- 63.5- 51.1- 5.9-
2023-12-04 12:42 am-------29.99- 63.5- 50.9- 5.9-
2023-12-04 12:36 am-------29.99- 63.5- 50.7- 5.9-
2023-12-04 12:30 am-------29.99- 63.5- 50.9- 5.9-
2023-12-04 12:24 am-------29.99- 63.7- 52.2- 5.9-
2023-12-04 12:18 am-------29.99- 63.5- 52.3- 5.9-
2023-12-04 12:12 am-------30.00- 63.1- 52.7- 5.9-
2023-12-04 12:06 am-------30.00- 63.5- 53.6- 5.9-
2023-12-04 12:00 am-------30.00-0.01 64.4- 53.6- 5.9-
2023-12-03 11:54 pm-------30.01- 64.4- 53.2- 5.9-
2023-12-03 11:48 pm-------30.00- 64.4- 52.0- 5.9-
2023-12-03 11:42 pm-------30.00- 64.6- 51.6- 5.9-
2023-12-03 11:36 pm-------30.00- 64.0- 51.8- 5.9-
2023-12-03 11:30 pm-------30.00- 64.0- 53.2- 5.9-
2023-12-03 11:24 pm-------30.00- 64.0- 53.1- 5.9-
2023-12-03 11:18 pm-------30.00- 64.2- 52.5- 5.9-
2023-12-03 11:12 pm-------30.00- 64.6- 52.3- 5.9-
2023-12-03 11:06 pm-------30.00- 64.4- 52.3- 5.9-
2023-12-03 11:00 pm-------29.99- 64.4- 53.2- 5.9-
2023-12-03 10:54 pm-------29.99- 64.2- 52.5- 5.9-
2023-12-03 10:48 pm-------30.00- 64.2- 53.1- 5.9-
2023-12-03 10:42 pm-------30.00- 64.2- 53.1- 5.9-
2023-12-03 10:36 pm-------30.00- 64.2- 53.8- 5.9-
2023-12-03 10:30 pm-------30.00- 63.9- 54.0- 5.9-
2023-12-03 10:24 pm-------30.01- 63.9- 55.0- 5.9-
2023-12-03 10:18 pm-------30.00- 63.9- 55.6- 5.9-
2023-12-03 10:12 pm-------30.00- 64.2- 56.7- 5.9-
2023-12-03 10:06 pm-------30.00- 64.2- 57.0- 5.9-
2023-12-03 10:00 pm-------30.00- 64.2- 57.7- 5.9-
2023-12-03 09:54 pm-------30.00- 64.4- 58.1- 5.9-
2023-12-03 09:48 pm-------30.00- 64.4- 57.9- 5.9-
2023-12-03 09:42 pm-------30.00- 64.6- 58.1- 5.9-
2023-12-03 09:36 pm-------30.00- 64.8- 58.1- 5.9-
2023-12-03 09:18 pm-------30.01- 64.6- 57.4- 5.9-
2023-12-03 09:12 pm-------30.01- 64.6- 57.0- 5.9-
2023-12-03 09:06 pm-------30.01- 64.6- 56.5- 5.9-
2023-12-03 09:00 pm-------30.01-------
2023-12-03 08:54 pm-------30.01-------
2023-12-03 08:48 pm-------30.00----- 5.9-
2023-12-03 08:42 pm-------30.00----- 5.9-
2023-12-03 08:36 pm-------30.00----- 5.9-
2023-12-03 08:30 pm-------30.01----- 5.9-
2023-12-03 08:24 pm-------30.01----- 5.9-
2023-12-03 08:18 pm-------30.01----- 5.9-
2023-12-03 08:12 pm-------30.00----- 5.9-
2023-12-03 08:06 pm-------29.99----- 5.9-
2023-12-03 07:48 pm-------30.00----- 5.9-
2023-12-03 07:42 pm-------30.00----- 5.9-
2023-12-03 07:36 pm-------30.00----- 5.9-
2023-12-03 07:18 pm-------29.99- 65.1- 55.4- 5.9-
2023-12-03 07:12 pm-------30.00- 65.3- 54.3- 5.9-
2023-12-03 07:06 pm-------30.00- 65.3- 51.3- 5.9-
2023-12-03 06:30 pm-------29.99----- 5.9-
2023-12-03 06:24 pm-------29.99----- 5.9-
2023-12-03 05:48 pm-------29.98- 66.7- 44.2- 5.9-
2023-12-03 05:42 pm-------29.98- 66.4- 42.8- 5.9-
2023-12-03 05:36 pm-------29.98- 66.0- 43.0- 5.9-
2023-12-03 05:30 pm-------29.98- 66.6- 44.1- 5.9-
2023-12-03 05:24 pm-------29.98- 67.5- 44.1- 5.9-
2023-12-03 05:00 pm-------29.98-0.02 68.0- 43.2- 5.9-
2023-12-03 04:54 pm-------29.98- 67.8- 41.7- 5.9-